TimeEET,TemperatureF,Dew PointF,Humidity,Sea Level PressureIn,VisibilityMPH,Wind Direction,Wind SpeedMPH,Gust SpeedMPH,PrecipitationIn,Events,Conditions,WindDirDegrees,DateUTC
12:00 AM,68.0,64.4,88,29.98,-9999.0,SSW,5.8,-,N/A,,Clear,210,2012-10-22 22:00:00
1:00 AM,66.2,64.4,94,29.98,-9999.0,SSW,4.6,-,N/A,,Clear,200,2012-10-22 23:00:00
2:00 AM,67,64,89,29.99,6,SSE,5.8,,,,,160,2012-10-23 00:00:00
2:00 AM,68.0,64.4,88,29.98,-9999.0,SSE,5.8,-,N/A,,Clear,160,2012-10-23 00:00:00
3:00 AM,68.0,64.4,88,29.98,-9999.0,SSW,4.6,-,N/A,,Clear,200,2012-10-23 01:00:00
4:00 AM,66.2,64.4,94,29.98,-9999.0,South,8.1,-,N/A,,Clear,180,2012-10-23 02:00:00
5:00 AM,68.0,64.4,88,30.01,-9999.0,SSW,4.6,-,N/A,,Clear,210,2012-10-23 03:00:00
6:00 AM,68.0,62.6,83,30.01,-9999.0,SSW,4.6,-,N/A,,Clear,210,2012-10-23 04:00:00
7:00 AM,68.0,62.6,83,29.98,-9999.0,Calm,Calm,-,N/A,,Clear,0,2012-10-23 05:00:00
8:00 AM,72,66,75,29.98,6,SSW,2.3,,,,,210,2012-10-23 06:00:00
8:00 AM,71.6,66.2,83,29.98,-9999.0,SSW,2.3,-,N/A,,Clear,210,2012-10-23 06:00:00
9:00 AM,77.0,62.6,61,29.98,-9999.0,SSW,3.5,-,N/A,,Clear,200,2012-10-23 07:00:00
10:00 AM,78.8,62.6,57,29.98,-9999.0,West,4.6,-,N/A,,Clear,260,2012-10-23 08:00:00
11:00 AM,80.6,60.8,51,29.98,6.2,WNW,8.1,-,N/A,,Partly Cloudy,300,2012-10-23 09:00:00
12:00 PM,80.6,59.0,48,29.98,6.2,West,6.9,-,N/A,,Partly Cloudy,280,2012-10-23 10:00:00
1:00 PM,80.6,59.0,48,29.95,6.2,NW,8.1,-,N/A,,Partly Cloudy,310,2012-10-23 11:00:00
2:00 PM,81,58,35,29.96,6,NW,9.2,,,,Scattered Clouds,320,2012-10-23 12:00:00
2:00 PM,80.6,59.0,48,29.95,6.2,NW,9.2,-,N/A,,Partly Cloudy,320,2012-10-23 12:00:00
3:00 PM,78.8,59.0,51,29.95,6.2,WNW,6.9,-,N/A,,Partly Cloudy,300,2012-10-23 13:00:00
4:00 PM,78.8,59.0,51,29.95,6.2,NNW,6.9,-,N/A,,Partly Cloudy,340,2012-10-23 14:00:00
5:00 PM,77.0,59.0,54,29.95,6.2,NNW,6.9,-,N/A,,Partly Cloudy,330,2012-10-23 15:00:00
6:00 PM,75.2,60.8,61,29.95,-9999.0,North,6.9,-,N/A,,Clear,350,2012-10-23 16:00:00
7:00 PM,73.4,62.6,69,29.95,-9999.0,North,4.6,-,N/A,,Clear,360,2012-10-23 17:00:00
8:00 PM,73,61,57,29.97,6,North,5.8,,,,,0,2012-10-23 18:00:00
8:00 PM,73.4,60.8,65,29.95,-9999.0,NNE,5.8,-,N/A,,Clear,30,2012-10-23 18:00:00
9:00 PM,73.4,60.8,65,29.95,-9999.0,NNE,4.6,-,N/A,,Clear,20,2012-10-23 19:00:00
10:00 PM,71.6,62.6,73,29.95,-9999.0,NNE,2.3,-,N/A,,Clear,30,2012-10-23 20:00:00
11:00 PM,71.6,62.6,73,29.98,-9999.0,NE,2.3,-,N/A,,Clear,40,2012-10-23 21:00:00